Location: Northcutt
(34.7304°N, 84.4305°W)
Time: 10:41:39
(UTC+00:00)

A-11 Canister half - Pass Details

Date: 07 October 2022
Orbit: 1524 x 1685 km, 47.3° (Epoch: 30 November)

Event Time Altitude Azimuth Distance (km) Brightness Sun altitude
Rises 19:40:34 0° 243° (WSW) 4,683 12.4 38.5°
Reaches altitude 10° 19:43:39 10° 246° (WSW) 3,692 12.1 38.1°
Maximum altitude 19:52:54 69° 329° (NNW) 1,609 9.7 36.7°
Drops below altitude 10° 20:02:13 10° 53° (NE) 3,714 10.6 35.2°
Sets 20:05:20 0° 56° (NE) 4,713 11.0 34.7°
